Temp
-7 -8 -8 -6 -6 -6 -6 -7 -8 -7 -7 -7 -6 -7 -6 -5 -4 -4 -4 -4 -4 -5 -4 -4 -4 -4 -3 -3 -3 -4 -5 -6 -6 -6 -6 -6 -6 -5 -5 -5 -5 -5 -5 -5 -5 -6 -5 -5 -6
-7 -7 -8 -7 -6 -6 -6 -7 -7 -8 -7 -7 -7 -6 -6 -5 -5 -5 -5 -4 -5 -5 -4 -5 -5 -4 -4 -4 -4 -4 -5 -6 -6 -6 -6 -6 -6 -6 -5 -6 -5 -5 -5 -5 -5 -6 -5 -5 -5
-7 -7 -7 -7 -7 -5 -6 -7 -8 -9 -8 -7 -7 -6 -5 -5 -4 -4 -5 -5 -5 -5 -5 -5 -5 -5 -5 -4 -4 -5 -5 -6 -6 -6 -6 -6 -6 -6 -6 -6 -6 -6 -6 -6 -6 -5 -5 -5 -4
-8 -7 -7 -6 -6 -6 -6 -7 -8 -9 -8 -7 -7 -6 -6 -5 -4 -4 -4 -5 -5 -5 -5 -5 -5 -5 -5 -5 -4 -5 -5 -6 -6 -7 -6 -6 -6 -6 -6 -6 -6 -6 -6 -6 -6 -5 -5 -5 -5
-7 -7 -7 -6 -6 -6 -6 -7 -8 -8 -8 -8 -7 -6 -6 -5 -4 -5 -5 -5 -5 -6 -6 -5 -5 -5 -5 -5 -5 -5 -5 -7 -7 -7 -7 -7 -6 -6 -6 -6 -6 -6 -6 -6 -6 -6 -6 -6 -5
-7 -7 -7 -6 -6 -6 -7 -8 -8 -8 -8 -8 -8 -7 -6 -5 -4 -4 -5 -5 -5 -6 -6 -6 -5 -5 -5 -5 -5 -6 -6 -7 -7 -7 -7 -7 -7 -7 -7 -7 -6 -6 -6 -6 -6 -6 -6 -6 -6
-7 -7 -7 -6 -6 -7 -7 -8 -8 -8 -8 -8 -7 -7 -6 -5 -5 -5 -5 -5 -5 -6 -5 -5 -5 -5 -5 -5 -6 -6 -7 -8 -8 -8 -7 -7 -7 -7 -7 -7 -7 -7 -6 -6 -6 -7 -7 -6 -6
-8 -7 -7 -7 -6 -7 -7 -8 -9 -9 -8 -8 -7 -7 -6 -6 -5 -5 -5 -5 -5 -5 -6 -6 -5 -5 -5 -6 -6 -7 -8 -8 -8 -8 -8 -8 -8 -7 -7 -7 -7 -7 -7 -7 -7 -7 -7 -7 -6
-9 -8 -7 -7 -7 -7 -7 -7 -9 -9 -9 -8 -7 -7 -7 -6 -5 -5 -4 -5 -6 -6 -6 -6 -6 -5 -6 -6 -7 -7 -8 -8 -8 -8 -8 -8 -8 -8 -7 -7 -7 -7 -7 -7 -7 -7 -7 -7 -6
-9 -8 -8 -8 -7 -8 -8 -8 -8 -9 -9 -8 -8 -7 -7 -7 -6 -6 -5 -6 -6 -7 -6 -6 -6 -6 -6 -6 -7 -7 -8 -8 -8 -8 -8 -8 -8 -8 -8 -7 -7 -7 -7 -8 -7 -7 -7 -7 -7
-9 -8 -8 -8 -8 -8 -8 -8 -9 -9 -8 -9 -8 -8 -8 -7 -6 -5 -5 -7 -7 -8 -7 -7 -7 -7 -6 -7 -7 -8 -8 -8 -8 -8 -9 -8 -8 -8 -8 -8 -7 -8 -8 -8 -7 -7 -7 -7 -7
-10 -9 -9 -9 -8 -8 -8 -8 -9 -9 -9 -9 -9 -7 -8 -7 -6 -6 -7 -7 -8 -7 -7 -7 -7 -7 -7 -7 -7 -8 -8 -8 -9 -9 -9 -9 -8 -8 -8 -8 -8 -8 -8 -8 -8 -7 -7 -7 -7
-11 -10 -10 -10 -9 -8 -8 -8 -9 -9 -8 -9 -9 -7 -7 -7 -6 -7 -6 -6 -7 -7 -7 -7 -7 -7 -7 -8 -8 -8 -8 -9 -9 -9 -9 -9 -9 -9 -9 -8 -8 -8 -8 -8 -8 -8 -8 -7 -7
-12 -11 -11 -10 -9 -9 -8 -9 -9 -9 -9 -9 -8 -9 -8 -8 -7 -6 -5 -6 -7 -8 -8 -7 -7 -7 -8 -8 -8 -8 -9 -9 -9 -9 -9 -9 -9 -9 -9 -9 -9 -9 -8 -8 -8 -8 -8 -8 -8
-12 -12 -12 -11 -10 -9 -9 -9 -8 -9 -9 -9 -9 -9 -8 -7 -7 -7 -6 -7 -7 -8 -8 -8 -7 -7 -8 -8 -8 -9 -9 -9 -9 -9 -9 -9 -9 -9 -9 -9 -9 -9 -9 -9 -8 -8 -8 -8 -8
-13 -12 -12 -11 -10 -9 -9 -8 -9 -9 -9 -9 -10 -9 -9 -8 -7 -7 -6 -7 -6 -7 -7 -8 -8 -8 -8 -8 -8 -9 -9 -8 -9 -9 -9 -9 -9 -10 -9 -9 -9 -9 -9 -9 -9 -9 -9 -8 -8
-14 -13 -11 -11 -10 -10 -9 -8 -8 -9 -9 -9 -10 -9 -9 -9 -9 -8 -7 -7 -7 -8 -8 -8 -9 -9 -9 -8 -8 -8 -8 -9 -9 -10 -10 -10 -10 -10 -9 -9 -9 -9 -9 -9 -9 -9 -9 -8 -8
-13 -13 -12 -12 -11 -10 -9 -8 -9 -10 -10 -10 -10 -9 -9 -9 -9 -8 -7 -7 -8 -7 -8 -8 -9 -9 -9 -9 -9 -9 -8 -8 -8 -8 -9 -9 -8 -8 -9 -9 -8 -9 -8 -10 -10 -9 -9 -8 -8
-14 -14 -13 -12 -11 -11 -10 -9 -10 -10 -10 -10 -10 -9 -9 -9 -9 -9 -8 -7 -7 -8 -8 -9 -9 -9 -9 -9 -10 -10 -10 -8 -9 -8 -8 -8 -8 -9 -9 -9 -9 -8 -9 -9 -9 -9 -10 -9 -8
-16 -14 -14 -13 -12 -12 -10 -10 -10 -11 -10 -10 -10 -10 -9 -9 -9 -9 -9 -8 -8 -9 -9 -9 -9 -10 -10 -9 -9 -9 -9 -9 -9 -9 -9 -8 -8 -8 -9 -8 -9 -8 -9 -9 -9 -9 -9 -8 -9
-16 -15 -14 -14 -13 -12 -11 -10 -11 -10 -10 -10 -10 -10 -9 -9 -9 -9 -9 -8 -8 -8 -8 -8 -9 -9 -10 -9 -9 -9 -8 -8 -8 -8 -9 -8 -8 -8 -8 -8 -8 -9 -9 -10 -10 -10 -9 -9 -8
-17 -15 -15 -14 -13 -12 -12 -11 -10 -10 -10 -10 -10 -9 -9 -8 -8 -8 -8 -8 -8 -9 -9 -9 -10 -10 -10 -9 -10 -11 -10 -9 -9 -9 -8 -8 -8 -8 -8 -8 -8 -9 -9 -10 -10 -10 -10 -9 -9
-17 -16 -16 -15 -14 -13 -12 -11 -10 -11 -11 -10 -9 -9 -8 -8 -8 -8 -8 -8 -8 -8 -9 -9 -9 -9 -9 -9 -9 -9 -8 -10 -9 -7 -7 -8 -7 -8 -8 -9 -9 -9 -11 -11 -10 -10 -9 -9 -9
-18 -17 -16 -16 -15 -14 -13 -12 -10 -10 -9 -9 -9 -9 -9 -9 -9 -9 -9 -8 -9 -9 -9 -9 -9 -9 -9 -10 -9 -9 -8 -7 -8 -6 -7 -8 -8 -8 -9 -9 -9 -10 -11 -10 -10 -10 -9 -9 -9
-18 -17 -16 -16 -15 -14 -13 -12 -10 -11 -10 -10 -10 -10 -10 -10 -9 -9 -9 -10 -10 -9 -10 -10 -9 -9 -9 -9 -9 -8 -8 -7 -7 -6 -8 -9 -9 -9 -9 -11 -11 -10 -10 -10 -10 -10 -10 -10 -10
-17 -17 -16 -15 -14 -14 -13 -12 -11 -11 -11 -10 -10 -10 -10 -10 -10 -10 -10 -10 -10 -10 -10 -10 -9 -9 -9 -9 -9 -8 -7 -7 -6 -7 -8 -9 -9 -9 -10 -11 -11 -10 -10 -10 -10 -10 -10 -10 -10
-17 -16 -16 -15 -15 -14 -13 -12 -11 -11 -11 -10 -10 -10 -9 -10 -10 -10 -10 -10 -10 -10 -10 -10 -9 -10 -10 -9 -9 -8 -8 -7 -7 -7 -8 -9 -9 -10 -11 -11 -10 -10 -11 -10 -10 -10 -10 -10 -10
-17 -17 -16 -15 -14 -14 -13 -12 -12 -12 -11 -11 -10 -10 -10 -10 -10 -10 -11 -11 -10 -10 -10 -10 -10 -10 -10 -10 -9 -9 -8 -7 -7 -7 -9 -8 -9 -10 -11 -10 -10 -10 -10 -10 -11 -10 -10 -11 -11
-16 -16 -16 -15 -14 -14 -13 -12 -12 -12 -11 -11 -11 -11 -10 -10 -11 -11 -11 -10 -10 -10 -10 -10 -10 -10 -10 -10 -9 -9 -9 -8 -9 -9 -9 -9 -10 -12 -11 -10 -11 -11 -11 -11 -11 -11 -11 -11 -12
-17 -16 -15 -15 -14 -14 -13 -13 -12 -12 -12 -11 -11 -11 -11 -11 -11 -11 -11 -11 -10 -10 -10 -10 -10 -10 -10 -10 -10 -10 -9 -9 -10 -10 -9 -10 -10 -12 -11 -11 -11 -11 -11 -11 -11 -11 -11 -12 -12
Height
5847 5849 5854 5858 5860 5862 5868 5873 5874 5875 5878 5881 5882 5884 5886 5890 5890 5895 5894 5895 5898 5900 5900 5903 5910 5912 5912 5913 5911 5913 5915 5916 5916 5918 5919 5920 5921 5921 5921 5921 5920 5920 5919 5918 5917 5915 5914 5911 5909
5841 5843 5846 5849 5851 5857 5865 5871 5875 5873 5873 5878 5880 5884 5886 5886 5886 5888 5890 5892 5894 5898 5900 5901 5907 5911 5911 5911 5910 5912 5914 5915 5917 5918 5919 5921 5921 5922 5922 5921 5920 5920 5919 5919 5918 5917 5915 5912 5908
5834 5836 5838 5839 5843 5853 5862 5869 5872 5868 5869 5873 5877 5881 5885 5886 5887 5888 5888 5891 5892 5897 5900 5900 5903 5908 5910 5910 5909 5911 5913 5915 5916 5918 5919 5919 5920 5920 5920 5920 5919 5919 5919 5918 5917 5915 5914 5912 5909
5826 5828 5830 5829 5838 5852 5859 5864 5864 5862 5866 5868 5873 5877 5882 5885 5886 5887 5889 5890 5891 5896 5901 5902 5903 5906 5908 5909 5909 5910 5912 5913 5915 5917 5919 5920 5920 5920 5920 5920 5920 5919 5919 5917 5916 5914 5912 5911 5909
5816 5818 5820 5822 5834 5846 5852 5856 5856 5858 5861 5865 5869 5873 5879 5881 5884 5886 5888 5890 5891 5896 5899 5901 5902 5905 5906 5908 5909 5910 5911 5913 5915 5917 5918 5919 5919 5919 5919 5919 5919 5919 5919 5917 5916 5914 5912 5910 5908
5805 5808 5811 5815 5829 5840 5845 5849 5850 5853 5856 5860 5865 5872 5876 5879 5881 5882 5886 5890 5890 5894 5897 5899 5901 5903 5904 5906 5907 5909 5911 5912 5914 5916 5917 5918 5918 5918 5918 5920 5920 5919 5919 5917 5915 5914 5911 5909 5906
5794 5798 5803 5812 5823 5830 5839 5842 5844 5847 5851 5856 5861 5868 5871 5875 5878 5879 5883 5889 5890 5892 5896 5898 5900 5901 5902 5904 5906 5907 5909 5911 5914 5915 5916 5917 5917 5918 5918 5918 5917 5917 5916 5915 5913 5911 5910 5908 5905
5782 5785 5791 5803 5813 5822 5828 5833 5838 5838 5846 5848 5855 5862 5868 5870 5875 5876 5881 5885 5890 5893 5895 5897 5899 5900 5901 5904 5905 5906 5908 5910 5912 5914 5916 5917 5917 5918 5917 5917 5916 5916 5915 5914 5912 5911 5909 5907 5905
5767 5772 5782 5794 5804 5814 5819 5824 5829 5832 5839 5842 5848 5858 5863 5866 5870 5875 5879 5881 5885 5891 5893 5895 5898 5899 5900 5901 5903 5905 5906 5909 5911 5913 5914 5916 5916 5915 5915 5915 5916 5915 5913 5911 5909 5908 5907 5905 5903
5752 5761 5770 5783 5795 5802 5810 5815 5820 5824 5830 5837 5844 5850 5856 5861 5868 5871 5875 5878 5881 5888 5892 5894 5896 5897 5898 5900 5901 5903 5905 5907 5909 5911 5912 5912 5913 5913 5913 5913 5913 5912 5910 5907 5905 5904 5903 5900 5898
5742 5750 5759 5773 5783 5790 5798 5805 5811 5818 5824 5831 5838 5844 5849 5857 5862 5866 5868 5874 5876 5882 5888 5891 5893 5895 5896 5898 5900 5901 5903 5905 5906 5908 5909 5910 5911 5911 5911 5911 5911 5910 5908 5906 5903 5902 5900 5898 5895
5727 5737 5747 5760 5769 5779 5787 5796 5804 5809 5819 5824 5832 5840 5846 5853 5858 5862 5865 5870 5874 5878 5880 5884 5888 5891 5893 5895 5897 5899 5901 5903 5904 5906 5907 5908 5908 5907 5907 5906 5907 5907 5904 5902 5900 5898 5896 5893 5890
5712 5724 5733 5745 5757 5768 5777 5786 5793 5802 5810 5816 5822 5833 5842 5847 5853 5858 5859 5860 5866 5872 5876 5880 5882 5885 5887 5890 5892 5895 5897 5899 5901 5903 5904 5903 5903 5903 5902 5902 5903 5902 5899 5898 5896 5894 5891 5888 5885
5699 5710 5718 5731 5745 5758 5767 5775 5782 5797 5801 5808 5817 5822 5831 5840 5848 5850 5856 5856 5861 5867 5870 5873 5876 5879 5882 5886 5889 5890 5892 5893 5895 5897 5898 5898 5898 5897 5896 5897 5897 5894 5894 5894 5892 5890 5887 5884 5881
5683 5694 5704 5717 5735 5746 5756 5766 5784 5789 5793 5800 5809 5813 5823 5833 5838 5846 5850 5852 5857 5862 5864 5867 5869 5872 5877 5880 5883 5885 5887 5889 5890 5891 5892 5892 5891 5891 5892 5892 5892 5889 5888 5886 5885 5884 5882 5879 5876
5671 5681 5693 5711 5725 5737 5747 5768 5772 5777 5783 5793 5800 5808 5817 5827 5833 5838 5845 5848 5853 5857 5861 5864 5867 5871 5873 5875 5876 5878 5881 5883 5884 5885 5884 5884 5884 5884 5886 5885 5884 5882 5880 5879 5878 5878 5876 5873 5870
5660 5674 5687 5703 5717 5727 5742 5757 5764 5769 5776 5784 5791 5801 5810 5820 5828 5834 5840 5844 5848 5850 5855 5860 5864 5866 5869 5871 5874 5875 5875 5877 5876 5876 5875 5876 5875 5876 5878 5875 5874 5872 5870 5872 5872 5872 5869 5867 5862
5658 5667 5679 5695 5710 5723 5733 5745 5754 5761 5768 5777 5784 5793 5804 5813 5824 5830 5835 5840 5844 5848 5851 5855 5858 5861 5864 5866 5870 5872 5872 5868 5869 5868 5864 5861 5860 5863 5867 5865 5863 5861 5861 5862 5863 5863 5860 5859 5855
5644 5655 5670 5686 5699 5713 5724 5729 5742 5751 5760 5767 5778 5786 5797 5805 5818 5826 5831 5835 5838 5841 5845 5849 5853 5854 5857 5861 5864 5865 5865 5862 5860 5860 5856 5856 5853 5851 5852 5853 5854 5852 5849 5851 5854 5853 5854 5850 5846
5637 5651 5664 5679 5689 5705 5713 5721 5732 5742 5753 5762 5772 5780 5789 5798 5808 5820 5826 5831 5834 5837 5839 5843 5846 5848 5850 5854 5853 5853 5853 5852 5852 5850 5848 5846 5845 5844 5843 5844 5847 5843 5843 5843 5847 5850 5847 5843 5840
5634 5647 5660 5673 5681 5694 5704 5713 5725 5737 5747 5755 5766 5774 5784 5792 5800 5811 5821 5826 5830 5832 5833 5837 5842 5843 5844 5846 5847 5848 5850 5848 5846 5842 5839 5841 5840 5840 5840 5840 5841 5836 5834 5836 5841 5841 5838 5836 5831
5632 5643 5655 5666 5676 5688 5698 5710 5720 5732 5742 5749 5760 5770 5780 5788 5795 5802 5811 5820 5823 5824 5825 5830 5834 5837 5838 5839 5837 5837 5840 5839 5846 5840 5829 5825 5830 5832 5834 5832 5834 5831 5828 5831 5835 5833 5830 5826 5823
5633 5643 5652 5661 5671 5682 5694 5705 5715 5726 5735 5747 5757 5766 5774 5782 5789 5796 5802 5808 5815 5819 5821 5823 5827 5832 5834 5832 5831 5831 5830 5835 5837 5830 5826 5823 5822 5822 5823 5825 5823 5824 5827 5830 5827 5826 5823 5819 5815
5631 5639 5649 5658 5668 5679 5691 5701 5712 5726 5741 5748 5753 5760 5769 5777 5783 5788 5794 5799 5804 5809 5813 5817 5818 5820 5820 5821 5822 5824 5826 5825 5826 5824 5817 5815 5815 5815 5815 5816 5816 5820 5822 5823 5820 5816 5815 5811 5807
5629 5637 5648 5658 5667 5677 5688 5700 5713 5724 5734 5740 5748 5755 5763 5770 5777 5782 5788 5792 5796 5799 5803 5808 5811 5811 5815 5816 5820 5822 5822 5817 5819 5810 5807 5807 5807 5808 5806 5808 5816 5817 5816 5815 5812 5809 5807 5802 5795
5632 5640 5649 5659 5667 5675 5685 5697 5708 5719 5728 5735 5742 5748 5756 5763 5771 5777 5781 5786 5789 5794 5798 5801 5805 5809 5810 5811 5812 5813 5811 5808 5806 5805 5804 5802 5803 5803 5800 5806 5812 5811 5808 5806 5805 5803 5798 5791 5785
5633 5642 5650 5658 5665 5676 5685 5696 5706 5713 5723 5731 5738 5745 5751 5759 5766 5771 5775 5779 5784 5787 5792 5795 5797 5799 5800 5800 5799 5801 5802 5801 5799 5802 5801 5800 5799 5798 5800 5802 5804 5803 5800 5799 5797 5794 5787 5781 5776
5635 5643 5650 5656 5665 5674 5683 5692 5701 5708 5717 5726 5735 5742 5747 5754 5761 5765 5769 5775 5779 5781 5784 5788 5791 5792 5791 5791 5790 5792 5793 5794 5793 5793 5794 5797 5797 5798 5797 5797 5796 5795 5793 5792 5789 5784 5777 5773 5768
5636 5641 5649 5657 5664 5672 5680 5688 5696 5704 5712 5722 5729 5737 5744 5749 5753 5757 5761 5767 5771 5775 5777 5778 5782 5785 5785 5785 5782 5784 5786 5785 5785 5784 5786 5788 5785 5785 5790 5790 5790 5789 5786 5782 5779 5773 5768 5764 5760
5636 5641 5647 5654 5663 5670 5677 5686 5691 5700 5708 5716 5725 5732 5737 5741 5744 5748 5752 5757 5761 5764 5767 5771 5773 5775 5777 5776 5780 5780 5782 5781 5781 5781 5780 5778 5778 5780 5782 5782 5781 5779 5776 5771 5767 5764 5758 5755 5752
Wind_Speed
35 41 38 36 38 38 37 33 28 25 22 24 23 26 23 17 19 18 16 17 16 15 19 18 12 11 10 11 11 12 10 10 9 7 5 4 3 3 4 6 9 10 11 12 14 16 17 20 20
38 39 43 42 42 38 36 32 28 26 31 24 20 29 23 21 21 20 18 21 18 18 20 20 15 12 12 13 12 12 10 10 8 7 6 5 5 4 5 7 10 11 12 14 16 17 18 20 22
41 42 43 48 47 37 34 34 30 30 32 29 22 27 28 27 23 21 20 18 21 17 18 21 18 13 13 12 11 11 9 9 8 7 7 7 6 5 5 8 10 11 12 14 15 15 18 18 20
46 46 47 50 46 37 33 35 35 37 32 31 28 21 23 23 23 22 22 21 22 18 16 16 15 15 13 11 10 10 9 8 8 8 7 6 5 6 8 9 12 12 13 15 13 16 17 17 18
52 50 51 50 43 40 36 36 41 41 38 36 35 29 22 21 23 23 24 26 24 19 16 14 13 13 12 11 10 9 9 9 8 7 7 6 8 8 10 11 13 13 14 14 16 15 16 15 17
56 55 55 53 42 36 41 37 42 44 44 42 36 30 27 25 33 30 27 27 25 20 18 16 14 13 12 12 12 10 9 9 9 9 8 9 10 11 12 14 14 14 15 16 16 16 16 17 18
58 58 55 52 45 40 40 42 42 44 48 46 44 37 32 26 27 30 29 27 24 21 20 17 16 14 13 14 13 13 12 11 11 10 11 11 12 13 14 14 13 14 16 16 17 18 19 21 21
60 61 59 53 49 43 42 47 43 46 46 48 46 42 34 32 33 22 31 28 24 23 19 17 15 15 15 15 15 15 14 13 13 12 13 13 14 14 15 16 15 16 18 19 21 21 21 24 24
64 65 61 54 50 47 46 47 50 48 48 50 48 40 40 40 34 27 26 36 27 24 22 20 18 18 18 18 18 16 15 15 14 14 14 16 16 17 16 17 17 19 20 20 21 21 22 22 23
67 67 63 57 51 49 48 49 50 53 49 53 50 45 38 37 34 33 34 36 27 24 24 21 21 21 20 20 19 18 17 16 17 17 17 18 19 19 19 19 19 19 18 19 21 23 23 22 25
68 68 66 59 54 53 52 50 48 55 54 51 54 52 45 37 37 35 36 33 28 27 26 23 23 20 20 21 20 19 18 19 20 20 21 21 22 22 22 21 20 21 23 26 24 24 24 26 30
69 68 66 64 59 57 55 51 51 54 56 52 52 51 49 39 31 38 32 30 31 26 28 26 23 21 22 22 21 21 21 22 22 23 23 24 24 25 25 26 25 24 26 26 26 25 27 26 29
69 68 66 64 63 60 57 54 52 52 56 57 52 51 48 41 40 37 31 38 36 29 28 26 25 24 24 23 24 24 24 24 25 25 27 27 28 28 29 29 28 27 30 30 28 27 29 29 30
67 67 67 63 63 62 59 57 55 51 55 57 57 52 50 47 44 39 36 30 33 33 32 31 29 27 26 24 25 25 26 27 27 28 30 30 31 32 33 32 30 30 31 30 29 31 31 30 35
68 68 67 66 63 63 61 57 52 52 55 56 57 56 48 44 49 49 34 28 34 38 39 34 33 32 28 27 27 27 27 26 28 31 32 34 37 38 36 35 33 35 32 30 30 33 30 33 36
64 68 67 65 62 64 62 53 54 55 56 56 58 57 50 46 41 46 51 34 32 36 40 38 34 30 30 32 32 32 31 31 34 36 38 40 40 40 39 38 38 40 36 30 32 34 33 39 38
62 64 66 63 63 64 60 56 53 57 57 56 58 56 54 49 44 43 36 34 32 37 41 39 35 33 31 34 39 41 40 38 42 43 43 44 45 44 41 44 43 45 34 29 33 34 40 43 45
59 58 63 60 61 62 59 59 56 56 58 56 58 58 57 54 46 44 45 42 37 36 33 31 35 39 40 40 43 46 45 46 47 49 52 50 47 46 44 48 47 40 40 28 31 36 39 42 42
58 55 57 57 58 58 60 62 59 54 58 59 56 58 59 57 53 47 48 49 44 37 36 35 36 40 39 41 47 51 52 52 54 57 57 51 47 47 51 50 49 42 36 28 35 37 41 37 39
53 52 53 53 54 54 61 63 58 54 55 58 56 57 60 61 53 45 44 45 42 36 37 38 37 40 42 44 46 55 61 61 57 63 65 59 56 55 53 46 47 39 37 28 36 36 38 38 40
49 49 47 47 50 53 57 62 57 56 54 55 56 56 58 61 58 53 46 45 46 44 45 43 43 41 42 43 47 54 56 60 62 50 71 73 56 49 48 49 49 36 30 25 29 34 31 39 40
44 44 42 44 48 51 56 57 56 54 53 56 55 55 54 55 57 57 55 54 54 54 53 50 46 44 46 54 59 52 49 39 46 46 61 50 63 62 59 50 43 38 24 23 28 31 37 38 38
39 36 37 40 42 49 50 53 55 51 53 55 55 55 53 52 51 49 49 48 46 45 49 50 50 49 51 53 51 45 48 53 47 40 44 50 45 40 36 30 30 27 16 20 29 35 36 37 40
35 34 34 36 39 44 46 48 52 49 49 53 54 54 54 52 50 49 46 43 43 45 46 45 46 45 44 41 41 43 46 50 47 45 41 25 39 45 38 35 27 23 17 27 31 31 35 39 42
34 35 33 34 36 39 44 45 48 44 45 49 49 50 51 49 47 47 44 44 44 43 36 28 31 37 41 39 40 40 37 37 47 46 29 39 38 32 25 3 15 22 27 30 31 34 38 40 39
32 31 30 32 36 38 40 43 44 41 42 47 47 48 45 44 42 41 41 40 37 31 29 31 31 33 35 39 39 41 37 29 39 32 39 35 28 29 19 13 20 26 28 30 33 38 39 39 41
31 30 29 29 32 32 38 43 41 41 41 43 43 42 39 36 35 34 33 34 31 30 34 34 36 31 32 35 34 26 26 31 31 30 22 30 30 18 20 21 27 27 28 31 36 38 38 38 42
26 27 28 28 30 30 33 39 40 42 43 42 41 39 38 38 36 34 33 30 29 34 38 37 35 32 30 26 26 22 27 29 34 35 30 39 57 26 20 27 28 27 30 34 37 36 37 41 44
25 27 27 27 27 29 31 34 37 42 45 45 44 42 40 38 35 34 35 36 38 41 42 42 37 30 29 21 21 22 27 28 23 24 23 36 27 10 24 31 29 31 34 35 36 35 40 44 40
23 25 27 28 26 28 31 33 34 38 41 45 43 42 40 38 39 40 37 40 41 43 43 39 38 33 29 31 32 25 22 25 25 26 31 40 33 17 29 31 32 33 34 34 34 40 42 37 37
Wind_Direction
236 235 226 218 219 213 210 207 213 227 222 213 214 179 196 200 180 178 187 186 188 187 160 150 175 177 163 166 148 139 134 124 122 121 132 160 179 234 299 347 349 354 351 357 356 355 6 4 2
236 236 234 223 222 212 209 205 210 229 230 199 195 198 210 200 186 181 174 179 176 180 168 154 175 182 172 178 158 148 140 131 129 139 158 187 227 263 318 334 333 336 341 345 347 355 3 7 15
240 236 235 232 222 213 203 203 207 227 233 226 209 190 202 211 205 186 173 178 163 178 180 165 175 178 176 181 162 150 148 142 144 162 178 201 236 271 301 314 321 325 333 338 346 357 0 8 15
238 239 238 237 229 210 201 199 204 222 225 226 206 202 201 229 212 199 185 180 169 175 187 181 179 177 175 183 172 165 170 161 168 180 199 224 261 290 299 306 314 320 330 340 347 355 3 2 10
236 237 238 237 231 215 204 202 205 211 223 225 220 220 195 214 221 212 193 190 177 179 186 194 195 191 180 192 192 189 189 177 183 198 216 245 265 280 289 301 309 317 330 336 347 353 355 357 359
233 235 237 236 233 222 212 206 212 208 216 226 223 225 223 227 217 208 206 204 183 187 192 201 203 202 197 197 200 194 193 192 201 215 232 249 267 277 293 308 313 320 332 334 338 341 341 340 340
232 234 238 237 233 227 215 212 213 215 214 220 226 220 221 229 222 208 202 209 205 193 201 207 209 208 209 211 209 201 201 202 212 227 243 257 270 282 298 301 306 314 321 323 319 323 326 330 334
230 232 233 233 230 224 219 215 210 217 215 220 225 224 221 226 216 212 205 209 218 217 210 212 220 215 212 215 215 210 207 209 223 236 252 264 270 288 297 297 302 313 315 316 317 316 318 323 327
230 231 233 231 228 223 221 214 214 218 213 218 222 219 216 223 217 217 222 220 211 225 222 220 224 222 218 215 216 216 217 221 231 241 254 265 273 282 287 291 303 309 312 312 308 308 314 319 324
229 231 232 228 226 225 221 219 212 217 215 216 217 218 216 222 234 239 226 223 205 224 230 228 226 229 222 221 218 221 223 225 232 243 254 259 267 276 280 286 296 305 307 307 308 306 307 309 313
228 229 228 225 224 224 220 219 215 216 220 218 217 216 217 220 229 221 209 212 202 216 225 226 228 229 228 226 225 226 229 233 237 245 250 257 266 272 278 283 289 298 298 298 301 301 302 305 312
228 228 228 225 223 221 220 217 217 215 217 222 220 219 218 215 219 202 199 218 216 210 211 217 223 225 228 228 229 228 231 235 241 246 252 260 266 268 273 274 282 294 294 291 295 292 296 306 311
226 226 227 224 220 219 218 216 213 215 217 220 221 220 220 217 214 204 216 209 212 208 212 215 219 223 227 229 226 227 231 236 244 250 254 257 259 263 267 273 280 288 287 289 289 289 297 303 305
225 223 223 223 219 217 217 216 214 214 217 220 223 221 220 216 225 217 224 208 203 210 208 212 212 221 223 226 231 233 236 238 244 249 252 254 256 259 265 270 276 280 281 285 286 292 299 301 307
223 221 221 220 217 216 217 217 214 217 218 220 220 223 220 216 222 229 215 213 207 206 206 208 212 215 220 224 231 235 239 243 246 247 248 250 254 260 265 269 273 274 277 280 288 293 296 301 303
220 221 218 217 216 215 216 210 211 215 217 220 217 223 221 219 220 226 223 232 222 226 221 211 219 223 226 233 232 236 245 248 248 248 248 250 254 259 263 264 266 269 270 277 284 288 290 295 300
216 221 219 216 215 215 213 209 215 213 218 218 219 219 218 215 220 218 214 220 211 216 214 214 220 231 239 250 253 257 248 245 249 243 242 246 251 255 260 258 266 259 260 269 279 282 293 293 301
212 218 219 216 215 213 212 210 215 212 215 218 219 218 218 218 208 222 230 224 212 221 223 229 227 239 251 258 259 258 252 249 248 241 238 235 232 241 247 255 257 254 253 263 272 279 287 292 301
210 214 217 214 213 212 212 212 212 214 213 214 218 223 219 222 218 218 226 234 236 230 227 236 244 248 253 255 257 253 252 250 254 249 249 248 236 240 244 248 255 252 257 253 266 277 287 298 300
209 210 215 212 213 211 212 213 213 210 212 216 216 222 224 223 224 217 222 229 228 228 237 243 244 250 269 261 261 252 251 251 251 256 259 252 250 246 245 248 255 256 263 257 269 283 292 294 296
205 209 213 211 211 208 210 214 213 212 211 215 217 220 224 226 228 227 225 228 234 244 251 255 257 263 262 260 264 259 259 269 260 274 261 259 249 249 252 257 254 251 261 284 282 286 287 291 294
202 207 209 211 210 208 210 214 215 215 211 216 218 222 225 229 234 237 238 238 243 248 253 256 263 261 260 259 279 296 295 273 303 298 288 283 251 250 260 249 255 272 283 278 280 286 290 295 300
200 205 205 208 207 208 208 213 216 214 214 216 220 225 228 230 235 240 244 246 246 249 253 257 261 265 269 274 281 289 293 288 294 296 298 299 241 251 235 242 265 272 279 277 287 293 297 299 301
199 199 199 200 201 208 208 211 214 216 217 219 222 225 229 233 237 242 247 253 258 260 262 266 273 277 279 279 280 285 283 280 294 291 288 261 256 232 236 252 264 281 275 278 291 297 298 298 302
195 198 198 196 199 206 208 208 211 211 210 216 220 224 226 231 235 239 246 251 254 259 268 269 273 275 277 281 281 281 288 279 288 301 265 243 240 225 228 306 289 263 277 291 296 298 296 298 303
196 194 197 202 204 204 208 206 207 206 206 211 215 220 221 226 232 234 238 245 250 256 263 273 274 281 282 279 285 285 287 292 290 297 255 216 229 237 231 310 282 277 282 292 296 292 299 305 307
196 194 194 197 205 208 210 206 204 203 204 208 210 217 223 226 226 229 234 244 257 261 267 276 285 292 282 284 291 297 301 289 288 277 257 237 245 249 307 300 280 285 293 297 296 298 300 305 306
195 192 196 200 205 203 207 210 203 203 203 204 207 212 222 230 238 240 239 245 256 267 273 278 282 290 287 276 286 290 288 284 283 278 271 265 280 273 288 284 287 292 294 294 297 300 303 303 305
191 193 199 202 206 203 204 206 205 204 206 208 211 216 225 235 237 243 251 256 259 264 270 275 280 284 284 274 280 273 279 267 258 272 269 261 263 293 280 281 287 292 293 297 298 300 302 304 309
192 195 195 201 203 203 201 206 206 205 208 212 214 217 218 227 236 242 246 253 258 263 268 273 280 290 284 270 263 259 224 239 251 258 266 255 265 295 277 287 291 294 298 298 298 301 303 307 307